When you browse on this site, cookies collect data to enhance your experience and personalize the content and advertising you see.
Visit our Privacy Policy to learn more. By continuing to use the site, you agree to this use of cookies and data.
  • en Suisse
  • Liste des pays
  • À 7 jours
  • Température de l'eau
  • Carte satellitaire
  • Carte météo
  • Widgets météo
  • user-avatar
    Se connecter

    Météo par heure à Pinang

    Ce jour, 21 Janvier, Lundi

    Heure Température Précipitation Vent Pression Humidité
    00:00 +27°C° 0 mm 3 m/s 756 mmHg 84%
    01:00 +27°C° 0 mm 3 m/s 756 mmHg 84%
    02:00 +26°C° 0 mm 2 m/s 756 mmHg 85%
    03:00 +26°C° 0 mm 2 m/s 756 mmHg 87%
    04:00 +26°C° 0 mm 2 m/s 755 mmHg 88%
    05:00 +26°C° 0 mm 2 m/s 755 mmHg 88%
    06:00 +26°C° 0 mm 2 m/s 756 mmHg 87%
    07:00 +26°C° 0 mm 2 m/s 756 mmHg 86%
    08:00 +28°C° 0 mm 2 m/s 756 mmHg 78%
    09:00 +30°C° 0 mm 3 m/s 756 mmHg 70%
    10:00 +33°C° 0 mm 3 m/s 757 mmHg 61%
    11:00 +33°C° 0.1 mm 3 m/s 756 mmHg 59%
    12:00 +34°C° 0.1 mm 4 m/s 756 mmHg 56%
    13:00 +35°C° 0 mm 4 m/s 756 mmHg 54%
    14:00 +34°C° 0.4 mm 4 m/s 755 mmHg 58%
    15:00 +33°C° 0.4 mm 4 m/s 755 mmHg 62%
    16:00 +32°C° 0.4 mm 4 m/s 754 mmHg 65%
    17:00 +30°C° 0 mm 4 m/s 755 mmHg 69%
    18:00 +29°C° 0 mm 4 m/s 755 mmHg 73%
    19:00 +27°C° 0 mm 3 m/s 756 mmHg 83%
    20:00 +27°C° 0 mm 3 m/s 756 mmHg 83%
    21:00 +27°C° 0 mm 3 m/s 756 mmHg 83%
    22:00 +26°C° 0 mm 3 m/s 757 mmHg 84%
    23:00 +26°C° 0 mm 2 m/s 757 mmHg 85%

    Demain, 22 Janvier, Mardi

    Heure Température Précipitation Vent Pression Humidité
    00:00 +26°C° 0 mm 2 m/s 757 mmHg 86%
    01:00 +26°C° 0 mm 2 m/s 757 mmHg 88%
    02:00 +25°C° 0 mm 2 m/s 756 mmHg 89%
    03:00 +25°C° 0 mm 2 m/s 756 mmHg 90%
    04:00 +25°C° 0 mm 2 m/s 756 mmHg 91%
    05:00 +25°C° 0 mm 2 m/s 756 mmHg 90%
    06:00 +25°C° 0 mm 2 m/s 756 mmHg 88%
    07:00 +25°C° 0 mm 2 m/s 756 mmHg 87%
    08:00 +27°C° 0 mm 2 m/s 757 mmHg 81%
    09:00 +29°C° 0 mm 2 m/s 757 mmHg 74%
    10:00 +30°C° 0 mm 3 m/s 757 mmHg 67%
    11:00 +31°C° 0 mm 3 m/s 757 mmHg 63%
    12:00 +33°C° 0 mm 3 m/s 757 mmHg 59%
    13:00 +34°C° 0 mm 4 m/s 756 mmHg 55%
    14:00 +33°C° 0 mm 4 m/s 756 mmHg 58%
    15:00 +33°C° 0 mm 4 m/s 755 mmHg 60%
    16:00 +32°C° 0 mm 4 m/s 755 mmHg 63%
    17:00 +30°C° 0 mm 4 m/s 755 mmHg 69%
    18:00 +29°C° 0 mm 3 m/s 755 mmHg 74%
    19:00 +28°C° 0 mm 3 m/s 755 mmHg 80%
    20:00 +28°C° 0 mm 3 m/s 756 mmHg 81%
    21:00 +27°C° 0 mm 3 m/s 756 mmHg 82%
    22:00 +27°C° 0 mm 3 m/s 757 mmHg 83%
    23:00 +27°C° 0 mm 3 m/s 757 mmHg 84%

    Après-demain, 23 Janvier, Mercredi

    Heure Température Précipitation Vent Pression Humidité
    00:00 +27°C° 0 mm 3 m/s 757 mmHg 86%
    01:00 +26°C° 0 mm 3 m/s 757 mmHg 87%
    02:00 +26°C° 0 mm 3 m/s 756 mmHg 88%
    03:00 +26°C° 0 mm 2 m/s 756 mmHg 89%
    04:00 +25°C° 0 mm 2 m/s 755 mmHg 90%
    05:00 +25°C° 0 mm 2 m/s 756 mmHg 89%
    06:00 +26°C° 0 mm 2 m/s 756 mmHg 88%
    07:00 +26°C° 0 mm 2 m/s 756 mmHg 88%
    08:00 +27°C° 0.1 mm 3 m/s 756 mmHg 84%
    09:00 +28°C° 0.1 mm 3 m/s 757 mmHg 80%
    10:00 +29°C° 0.1 mm 3 m/s 757 mmHg 77%
    11:00 +30°C° 0.8 mm 3 m/s 757 mmHg 75%
    12:00 +30°C° 0.8 mm 4 m/s 756 mmHg 74%
    13:00 +32°C° 0.8 mm 4 m/s 756 mmHg 73%
    14:00 +32°C° 0.8 mm 4 m/s 755 mmHg 73%
    15:00 +30°C° 0.8 mm 4 m/s 755 mmHg 73%
    16:00 +30°C° 0.8 mm 4 m/s 754 mmHg 72%
    17:00 +29°C° 0.3 mm 4 m/s 754 mmHg 78%
    18:00 +28°C° 0.3 mm 4 m/s 755 mmHg 84%
    19:00 +27°C° 0.3 mm 3 m/s 755 mmHg 89%
    20:00 +27°C° 0.1 mm 3 m/s 756 mmHg 90%
    21:00 +26°C° 0.1 mm 3 m/s 756 mmHg 91%
    22:00 +26°C° 0.1 mm 3 m/s 757 mmHg 92%
    23:00 +26°C° 0.1 mm 3 m/s 757 mmHg 93%

    24 Janvier, Jeudi

    Heure Température Précipitation Vent Pression Humidité
    00:00 +26°C° 0.1 mm 3 m/s 756 mmHg 94%
    01:00 +26°C° 0.1 mm 3 m/s 756 mmHg 94%
    02:00 +25°C° 0.1 mm 3 m/s 756 mmHg 95%
    03:00 +25°C° 0.1 mm 3 m/s 755 mmHg 95%
    04:00 +25°C° 0.1 mm 3 m/s 755 mmHg 96%
    05:00 +25°C° 0.1 mm 2 m/s 755 mmHg 95%
    06:00 +25°C° 0.1 mm 2 m/s 756 mmHg 95%
    07:00 +25°C° 0.1 mm 2 m/s 756 mmHg 94%
    08:00 +27°C° 0.1 mm 3 m/s 757 mmHg 84%
    09:00 +29°C° 0.1 mm 3 m/s 757 mmHg 74%
    10:00 +32°C° 0.1 mm 4 m/s 758 mmHg 64%
    11:00 +33°C° 0 mm 4 m/s 757 mmHg 60%
    12:00 +33°C° 0 mm 4 m/s 756 mmHg 56%
    13:00 +34°C° 0 mm 4 m/s 756 mmHg 52%
    14:00 +34°C° 0 mm 4 m/s 755 mmHg 54%
    15:00 +33°C° 0 mm 4 m/s 755 mmHg 56%
    16:00 +33°C° 0 mm 4 m/s 754 mmHg 58%
    17:00 +30°C° 0 mm 4 m/s 754 mmHg 64%
    18:00 +29°C° 0 mm 3 m/s 755 mmHg 71%
    19:00 +28°C° 0 mm 3 m/s 755 mmHg 78%
    20:00 +27°C° 0 mm 3 m/s 756 mmHg 79%
    21:00 +27°C° 0 mm 3 m/s 757 mmHg 81%
    22:00 +27°C° 0 mm 3 m/s 757 mmHg 82%
    23:00 +27°C° 0 mm 3 m/s 757 mmHg 83%

    25 Janvier, Vendredi

    Heure Température Précipitation Vent Pression Humidité
    00:00 +27°C° 0 mm 3 m/s 757 mmHg 83%
    01:00 +26°C° 0 mm 3 m/s 756 mmHg 84%
    02:00 +26°C° 0 mm 3 m/s 756 mmHg 85%
    03:00 +26°C° 0 mm 3 m/s 756 mmHg 86%
    04:00 +26°C° 0 mm 2 m/s 755 mmHg 87%
    05:00 +26°C° 0 mm 2 m/s 756 mmHg 87%
    06:00 +26°C° 0 mm 3 m/s 756 mmHg 87%
    07:00 +26°C° 0 mm 3 m/s 756 mmHg 86%
    08:00 +27°C° 0 mm 3 m/s 757 mmHg 78%
    09:00 +29°C° 0 mm 3 m/s 757 mmHg 69%
    10:00 +32°C° 0 mm 4 m/s 758 mmHg 60%
    11:00 +33°C° 0 mm 4 m/s 757 mmHg 57%
    12:00 +33°C° 0 mm 4 m/s 756 mmHg 54%
    13:00 +34°C° 0 mm 4 m/s 756 mmHg 50%
    14:00 +33°C° 0 mm 4 m/s 755 mmHg 52%
    15:00 +33°C° 0 mm 4 m/s 755 mmHg 53%
    16:00 +32°C° 0 mm 4 m/s 754 mmHg 55%
    17:00 +30°C° 0 mm 4 m/s 755 mmHg 59%
    18:00 +29°C° 0 mm 3 m/s 755 mmHg 64%
    19:00 +27°C° 0 mm 3 m/s 756 mmHg 69%
    20:00 +27°C° 0 mm 3 m/s 756 mmHg 72%
    21:00 +27°C° 0 mm 3 m/s 757 mmHg 75%
    22:00 +27°C° 0 mm 3 m/s 757 mmHg 78%
    23:00 +27°C° 0 mm 3 m/s 757 mmHg 80%

    26 Janvier, Samedi

    Heure Température Précipitation Vent Pression Humidité
    00:00 +26°C° 0 mm 3 m/s 757 mmHg 82%
    01:00 +26°C° 0 mm 3 m/s 757 mmHg 84%
    02:00 +26°C° 0 mm 3 m/s 756 mmHg 85%
    03:00 +26°C° 0 mm 2 m/s 756 mmHg 86%
    04:00 +26°C° 0 mm 2 m/s 755 mmHg 87%
    05:00 +26°C° 0 mm 2 m/s 756 mmHg 87%
    06:00 +26°C° 0 mm 2 m/s 756 mmHg 87%
    07:00 +26°C° 0 mm 2 m/s 756 mmHg 87%
    08:00 +27°C° 0 mm 2 m/s 757 mmHg 81%
    09:00 +29°C° 0 mm 3 m/s 757 mmHg 74%
    10:00 +30°C° 0 mm 3 m/s 757 mmHg 68%
    11:00 +31°C° 0 mm 3 m/s 757 mmHg 63%
    12:00 +33°C° 0 mm 4 m/s 756 mmHg 58%
    13:00 +35°C° 0 mm 4 m/s 755 mmHg 54%
    14:00 +34°C° 0.5 mm 4 m/s 755 mmHg 60%
    15:00 +33°C° 0.5 mm 4 m/s 754 mmHg 65%
    16:00 +31°C° 0.5 mm 3 m/s 754 mmHg 71%
    17:00 +29°C° 0.5 mm 3 m/s 754 mmHg 78%
    18:00 +28°C° 0.5 mm 3 m/s 755 mmHg 84%
    19:00 +27°C° 0.5 mm 3 m/s 756 mmHg 90%
    20:00 +27°C° 0.1 mm 3 m/s 756 mmHg 90%
    21:00 +27°C° 0.1 mm 3 m/s 756 mmHg 90%
    22:00 +27°C° 0.1 mm 3 m/s 757 mmHg 91%
    23:00 +26°C° 0.4 mm 3 m/s 757 mmHg 91%
    Voir plus